| time (UTC) | temp C | wind direction | speed KPH | gust KPH | rain 1hr cm | rain 24hr cm | rain mn cm | humidity % | barometer mb |
| 20260508020500 | 13 | 262 | 9.7 | 14.5 | 0.00 | 0.38 | 0.03 | 90 | 995.8 |
| 20260508020000 | 13 | 262 | 9.7 | 16.1 | 0.00 | 0.41 | 0.03 | 90 | 995.8 |
| 20260508015500 | 13 | 261 | 9.7 | 16.1 | 0.00 | 0.43 | 0.03 | 90 | 995.9 |
| 20260508015000 | 13 | 259 | 8.0 | 12.9 | 0.00 | 0.43 | 0.03 | 90 | 996.0 |
| 20260508014500 | 13 | 261 | 8.0 | 14.5 | 0.00 | 0.43 | 0.03 | 89 | 996.1 |
| 20260508014000 | 13 | 259 | 9.7 | 14.5 | 0.00 | 0.43 | 0.03 | 89 | 996.2 |
| 20260508013500 | 13 | 257 | 9.7 | 16.1 | 0.00 | 0.43 | 0.03 | 89 | 996.1 |
| 20260508013000 | 13 | 258 | 9.7 | 17.7 | 0.00 | 0.43 | 0.03 | 89 | 996.2 |
| 20260508012500 | 13 | 257 | 9.7 | 17.7 | 0.00 | 0.43 | 0.03 | 89 | 996.2 |
| 20260508012000 | 13 | 258 | 9.7 | 17.7 | 0.00 | 0.43 | 0.03 | 89 | 996.4 |
| 20260508011500 | 13 | 260 | 9.7 | 14.5 | 0.00 | 0.43 | 0.03 | 89 | 996.5 |
| 20260508011000 | 13 | 262 | 9.7 | 14.5 | 0.00 | 0.43 | 0.03 | 89 | 996.6 |
| 20260508010500 | 13 | 262 | 9.7 | 14.5 | 0.00 | 0.43 | 0.03 | 89 | 996.7 |
| 20260508010000 | 13 | 260 | 8.0 | 14.5 | 0.00 | 0.43 | 0.03 | 89 | 996.8 |
| 20260508005500 | 13 | 259 | 8.0 | 14.5 | 0.00 | 0.43 | 0.03 | 89 | 996.8 |
| 20260508005000 | 13 | 260 | 9.7 | 14.5 | 0.00 | 0.43 | 0.03 | 89 | 996.9 |
| 20260508004500 | 13 | 264 | 8.0 | 12.9 | 0.00 | 0.51 | 0.03 | 89 | 997.0 |
| 20260508004000 | 13 | 266 | 9.7 | 17.7 | 0.00 | 0.61 | 0.03 | 89 | 997.1 |
| 20260508003500 | 13 | 266 | 9.7 | 20.9 | 0.00 | 0.74 | 0.03 | 89 | 997.1 |
| 20260508003000 | 13 | 262 | 9.7 | 20.9 | 0.00 | 0.81 | 0.03 | 89 | 997.1 |
| 20260508002500 | 13 | 261 | 9.7 | 14.5 | 0.00 | 0.89 | 0.03 | 89 | 997.1 |
| 20260508002000 | 13 | 266 | 9.7 | 16.1 | 0.00 | 0.89 | 0.03 | 89 | 997.1 |
| 20260508001500 | 13 | 267 | 9.7 | 16.1 | 0.00 | 0.89 | 0.03 | 89 | 997.3 |
| 20260508001000 | 13 | 264 | 9.7 | 16.1 | 0.00 | 0.89 | 0.03 | 89 | 997.1 |
| 20260508000500 | 13 | 271 | 8.0 | 14.5 | 0.00 | 0.89 | 0.03 | 88 | 996.9 |
| 20260508000000 | 13 | 278 | 6.4 | 12.9 | 0.00 | 0.89 | 0.03 | 88 | 997.0 |
| 20260507235500 | 13 | 274 | 4.8 | 12.9 | 0.00 | 0.89 | 0.03 | 88 | 997.1 |
| 20260507235000 | 13 | 265 | 4.8 | 12.9 | 0.00 | 0.91 | 0.03 | 88 | 997.0 |
| 20260507234500 | 13 | 262 | 8.0 | 14.5 | 0.00 | 0.99 | 0.03 | 88 | 996.7 |
| 20260507234000 | 13 | 259 | 8.0 | 14.5 | 0.00 | 1.22 | 0.03 | 88 | 996.6 |
| 20260507233500 | 13 | 253 | 8.0 | 14.5 | 0.00 | 1.37 | 0.03 | 88 | 996.4 |
| 20260507233000 | 13 | 249 | 9.7 | 17.7 | 0.00 | 1.42 | 0.03 | 87 | 996.3 |
| 20260507232500 | 13 | 250 | 9.7 | 17.7 | 0.00 | 1.45 | 0.03 | 87 | 996.3 |
| 20260507232000 | 13 | 252 | 9.7 | 16.1 | 0.00 | 1.45 | 0.03 | 87 | 996.3 |
| 20260507231500 | 13 | 251 | 9.7 | 12.9 | 0.00 | 1.47 | 0.03 | 87 | 996.5 |
| 20260507231000 | 13 | 244 | 8.0 | 12.9 | 0.00 | 1.60 | 0.03 | 86 | 996.6 |
| 20260507230500 | 13 | 239 | 8.0 | 19.3 | 0.00 | 1.68 | 0.03 | 86 | 996.6 |
| 20260507230000 | 13 | 239 | 9.7 | 19.3 | 0.00 | 1.75 | 0.03 | 86 | 996.6 |
| 20260507225500 | 13 | 242 | 9.7 | 12.9 | 0.00 | 1.88 | 0.03 | 86 | 996.5 |
| 20260507225000 | 13 | 246 | 8.0 | 14.5 | 0.00 | 2.01 | 0.03 | 85 | 996.5 |
| 20260507224500 | 13 | 247 | 8.0 | 16.1 | 0.00 | 2.11 | 0.03 | 85 | 996.6 |
| 20260507224000 | 13 | 248 | 9.7 | 17.7 | 0.00 | 2.26 | 0.03 | 85 | 996.7 |
| 20260507223500 | 13 | 244 | 9.7 | 17.7 | 0.00 | 2.41 | 0.03 | 85 | 996.7 |
| 20260507223000 | 13 | 242 | 12.9 | 24.1 | 0.00 | 2.87 | 0.03 | 85 | 996.5 |
| 20260507222500 | 13 | 243 | 14.5 | 25.7 | 0.00 | 3.15 | 0.03 | 85 | 996.6 |
| 20260507222000 | 13 | 242 | 14.5 | 25.7 | 0.00 | 3.40 | 0.03 | 85 | 996.4 |
| 20260507221500 | 13 | 241 | 14.5 | 24.1 | 0.00 | 3.48 | 0.03 | 85 | 996.3 |
| 20260507221000 | 13 | 238 | 14.5 | 24.1 | 0.00 | 3.58 | 0.03 | 85 | 996.0 |
| 20260507220500 | 13 | 239 | 14.5 | 25.7 | 0.00 | 3.61 | 0.03 | 85 | 996.2 |
| 20260507220000 | 13 | 237 | 14.5 | 25.7 | 0.00 | 3.63 | 0.03 | 85 | 996.2 |
| 20260507215500 | 13 | 233 | 14.5 | 27.4 | 0.00 | 3.71 | 0.03 | 85 | 996.0 |
| 20260507215000 | 14 | 234 | 16.1 | 27.4 | 0.00 | 3.78 | 0.03 | 85 | 995.9 |
| 20260507214500 | 14 | 236 | 16.1 | 30.6 | 0.00 | 3.84 | 0.03 | 85 | 995.9 |
| 20260507214000 | 13 | 236 | 17.7 | 30.6 | 0.00 | 3.89 | 0.03 | 85 | 995.9 |
| 20260507213500 | 13 | 230 | 17.7 | 29.0 | 0.00 | 3.89 | 0.03 | 85 | 995.9 |
| 20260507213000 | 14 | 226 | 17.7 | 30.6 | 0.00 | 3.91 | 0.03 | 85 | 995.7 |
| 20260507212500 | 14 | 226 | 16.1 | 30.6 | 0.00 | 4.06 | 0.03 | 85 | 995.5 |
| 20260507212000 | 13 | 226 | 14.5 | 29.0 | 0.00 | 4.09 | 0.03 | 85 | 995.3 |
| 20260507211500 | 14 | 229 | 14.5 | 29.0 | 0.00 | 4.11 | 0.03 | 86 | 995.2 |
| 20260507211000 | 14 | 231 | 16.1 | 29.0 | 0.00 | 4.17 | 0.03 | 86 | 995.5 |
| 20260507210500 | 14 | 231 | 14.5 | 29.0 | 0.00 | 4.19 | 0.03 | 86 | 995.7 |
| 20260507210000 | 14 | 231 | 12.9 | 22.5 | 0.00 | 4.27 | 0.03 | 87 | 995.9 |
| 20260507205500 | 14 | 236 | 17.7 | 27.4 | 0.00 | 4.39 | 0.03 | 87 | 996.3 |
| 20260507205000 | 14 | 237 | 17.7 | 29.0 | 0.00 | 4.50 | 0.03 | 87 | 996.2 |
| 20260507204500 | 14 | 238 | 16.1 | 29.0 | 0.00 | 4.80 | 0.03 | 87 | 996.2 |
| 20260507204000 | 14 | 240 | 17.7 | 25.7 | 0.00 | 4.80 | 0.03 | 87 | 996.4 |
| 20260507203500 | 14 | 239 | 19.3 | 32.2 | 0.00 | 4.83 | 0.03 | 87 | 996.8 |
| 20260507203000 | 14 | 240 | 19.3 | 32.2 | 0.00 | 4.83 | 0.03 | 87 | 996.9 |
| 20260507202500 | 14 | 244 | 20.9 | 33.8 | 0.00 | 4.85 | 0.03 | 87 | 997.0 |
| 20260507202000 | 14 | 245 | 20.9 | 33.8 | 0.00 | 4.90 | 0.03 | 87 | 997.2 |
| 20260507201500 | 14 | 243 | 19.3 | 30.6 | 0.00 | 4.90 | 0.03 | 88 | 997.3 |
| 20260507201000 | 14 | 238 | 19.3 | 33.8 | 0.00 | 4.90 | 0.03 | 88 | 997.3 |
| 20260507200500 | 14 | 239 | 17.7 | 33.8 | 0.00 | 4.90 | 0.03 | 88 | 997.2 |
| 20260507200000 | 14 | 241 | 16.1 | 30.6 | 0.00 | 4.90 | 0.03 | 89 | 997.4 |
| 20260507195500 | 14 | 239 | 17.7 | 29.0 | 0.00 | 4.90 | 0.03 | 90 | 997.5 |
| 20260507195000 | 14 | 235 | 19.3 | 32.2 | 0.00 | 4.90 | 0.03 | 90 | 997.5 |
| 20260507194500 | 14 | 234 | 17.7 | 32.2 | 0.00 | 4.90 | 0.03 | 90 | 997.5 |
| 20260507194000 | 14 | 236 | 16.1 | 25.7 | 0.00 | 4.90 | 0.03 | 90 | 997.3 |
| 20260507193500 | 14 | 237 | 16.1 | 27.4 | 0.00 | 4.93 | 0.03 | 91 | 997.4 |
| 20260507193000 | 14 | 238 | 16.1 | 27.4 | 0.00 | 4.93 | 0.03 | 91 | 997.6 |
| 20260507192500 | 14 | 239 | 16.1 | 29.0 | 0.00 | 4.98 | 0.03 | 92 | 997.4 |
| 20260507192000 | 14 | 239 | 17.7 | 29.0 | 0.00 | 5.26 | 0.03 | 92 | 997.3 |
| 20260507191500 | 14 | 242 | 16.1 | 27.4 | 0.00 | 5.44 | 0.03 | 93 | 997.4 |
| 20260507191000 | 14 | 246 | 16.1 | 25.7 | 0.00 | 5.51 | 0.03 | 93 | 997.6 |
| 20260507190500 | 14 | 246 | 17.7 | 25.7 | 0.00 | 5.56 | 0.03 | 93 | 997.5 |
| 20260507190000 | 14 | 242 | 17.7 | 30.6 | 0.00 | 5.71 | 0.03 | 93 | 997.4 |
| 20260507185500 | 14 | 238 | 17.7 | 30.6 | 0.00 | 5.74 | 0.03 | 93 | 997.4 |
| 20260507185000 | 14 | 239 | 19.3 | 27.4 | 0.00 | 5.74 | 0.03 | 93 | 997.3 |
| 20260507184500 | 14 | 241 | 19.3 | 29.0 | 0.00 | 5.74 | 0.03 | 93 | 997.2 |
| 20260507184000 | 14 | 237 | 17.7 | 29.0 | 0.00 | 5.74 | 0.03 | 93 | 997.3 |
| 20260507183500 | 14 | 235 | 14.5 | 25.7 | 0.00 | 5.74 | 0.03 | 93 | 997.2 |
| 20260507183000 | 14 | 241 | 16.1 | 30.6 | 0.00 | 5.74 | 0.03 | 93 | 997.2 |
| 20260507182500 | 14 | 242 | 19.3 | 33.8 | 0.00 | 5.74 | 0.03 | 93 | 997.2 |
| 20260507181959 | 14 | 241 | 20.9 | 33.8 | 0.00 | 5.74 | 0.03 | 93 | 997.3 |
| 20260507181500 | 14 | 240 | 19.3 | 32.2 | 0.00 | 5.74 | 0.03 | 93 | 997.1 |
| 20260507180959 | 14 | 241 | 16.1 | 32.2 | 0.00 | 5.74 | 0.03 | 93 | 997.2 |
| 20260507180459 | 15 | 247 | 14.5 | 27.4 | 0.00 | 5.74 | 0.03 | 94 | 997.2 |
| 20260507180000 | 14 | 244 | 14.5 | 27.4 | 0.00 | 5.74 | 0.03 | 94 | 997.4 |
| 20260507175459 | 14 | 237 | 14.5 | 25.7 | 0.00 | 5.74 | 0.03 | 94 | 997.4 |
| 20260507175000 | 14 | 234 | 14.5 | 25.7 | 0.00 | 5.74 | 0.03 | 94 | 997.4 |
| 20260507174500 | 14 | 228 | 11.3 | 24.1 | 0.00 | 5.74 | 0.03 | 94 | 997.4 |
| 20260507173959 | 14 | 228 | 12.9 | 25.7 | 0.00 | 5.74 | 0.03 | 94 | 997.1 |
| 20260507173500 | 14 | 231 | 14.5 | 25.7 | 0.00 | 5.74 | 0.03 | 94 | 997.0 |
| 20260507173000 | 14 | 229 | 14.5 | 20.9 | 0.00 | 5.74 | 0.03 | 94 | 996.9 |
| 20260507172500 | 14 | 235 | 14.5 | 25.7 | 0.00 | 5.74 | 0.03 | 94 | 997.0 |
| 20260507172000 | 14 | 239 | 12.9 | 25.7 | 0.00 | 5.77 | 0.03 | 94 | 996.9 |
| 20260507171500 | 14 | 237 | 12.9 | 24.1 | 0.00 | 5.77 | 0.03 | 94 | 996.8 |
| 20260507171000 | 14 | 239 | 14.5 | 24.1 | 0.00 | 5.77 | 0.03 | 94 | 996.8 |
| 20260507170500 | 14 | 244 | 14.5 | 22.5 | 0.00 | 5.79 | 0.03 | 94 | 996.9 |
| 20260507170000 | 14 | 242 | 14.5 | 22.5 | 0.00 | 5.87 | 0.03 | 94 | 997.0 |
| 20260507165459 | 13 | 241 | 14.5 | 25.7 | 0.00 | 5.89 | 0.03 | 94 | 997.1 |
| 20260507164959 | 13 | 240 | 14.5 | 25.7 | 0.00 | 5.89 | 0.03 | 94 | 997.1 |
| 20260507164500 | 14 | 241 | 14.5 | 22.5 | 0.00 | 5.89 | 0.03 | 94 | 997.1 |
| 20260507164000 | 14 | 242 | 12.9 | 22.5 | 0.00 | 5.89 | 0.03 | 94 | 997.2 |
| 20260507163459 | 14 | 235 | 11.3 | 19.3 | 0.00 | 5.89 | 0.03 | 94 | 997.5 |
| 20260507163000 | 14 | 234 | 9.7 | 19.3 | 0.00 | 5.89 | 0.03 | 94 | 997.4 |
| 20260507162459 | 14 | 234 | 8.0 | 14.5 | 0.00 | 5.89 | 0.03 | 93 | 997.4 |
| 20260507161959 | 14 | 236 | 8.0 | 17.7 | 0.00 | 5.89 | 0.03 | 93 | 997.5 |
| 20260507161500 | 14 | 242 | 11.3 | 17.7 | 0.00 | 5.89 | 0.03 | 93 | 997.6 |
| 20260507160959 | 14 | 240 | 11.3 | 17.7 | 0.00 | 5.89 | 0.03 | 93 | 997.6 |
| 20260507160500 | 14 | 234 | 11.3 | 17.7 | 0.00 | 5.89 | 0.03 | 92 | 997.6 |
| 20260507160001 | 14 | 229 | 9.7 | 14.5 | 0.00 | 5.89 | 0.03 | 91 | 997.6 |
| 20260507155500 | 14 | 225 | 9.7 | 20.9 | 0.00 | 5.89 | 0.03 | 91 | 997.2 |
| 20260507154959 | 14 | 225 | 11.3 | 20.9 | 0.00 | 5.89 | 0.03 | 92 | 996.9 |
| 20260507154500 | 14 | 222 | 12.9 | 20.9 | 0.00 | 5.89 | 0.03 | 91 | 996.9 |
| 20260507153959 | 14 | 218 | 12.9 | 20.9 | 0.00 | 5.89 | 0.03 | 92 | 996.9 |
| 20260507153459 | 14 | 224 | 14.5 | 25.7 | 0.00 | 5.89 | 0.03 | 91 | 996.7 |
| 20260507152959 | 14 | 226 | 16.1 | 25.7 | 0.00 | 5.89 | 0.03 | 92 | 996.5 |
| 20260507152500 | 14 | 225 | 16.1 | 24.1 | 0.00 | 5.89 | 0.03 | 92 | 996.5 |
| 20260507151959 | 14 | 225 | 16.1 | 27.4 | 0.03 | 5.89 | 0.03 | 92 | 996.4 |
| 20260507151459 | 14 | 223 | 16.1 | 27.4 | 0.03 | 5.89 | 0.03 | 92 | 996.2 |
| 20260507151000 | 13 | 225 | 17.7 | 22.5 | 0.03 | 5.89 | 0.03 | 92 | 996.2 |
| 20260507145500 | 13 | 203 | 14.5 | 29.0 | 0.03 | 5.89 | 0.03 | 92 | 996.2 |
| 20260507145000 | 14 | 210 | 14.5 | 24.1 | 0.03 | 5.89 | 0.03 | 93 | 996.3 |
| 20260507144500 | 13 | 217 | 14.5 | 24.1 | 0.03 | 5.89 | 0.03 | 92 | 996.7 |
| 20260507144000 | 13 | 218 | 12.9 | 22.5 | 0.03 | 5.89 | 0.03 | 92 | 996.4 |
| 20260507143500 | 13 | 216 | 12.9 | 20.9 | 0.03 | 5.89 | 0.03 | 92 | 996.4 |
| 20260507143002 | 13 | 209 | 12.9 | 22.5 | 0.03 | 5.89 | 0.03 | 92 | 996.5 |
| 20260507142500 | 14 | 208 | 12.9 | 22.5 | 0.03 | 5.89 | 0.03 | 92 | 997.2 |
| 20260507142000 | 14 | 208 | 11.3 | 20.9 | 0.00 | 5.87 | 0.00 | 92 | 997.9 |
| 20260507141501 | 14 | 198 | 11.3 | 20.9 | 0.00 | 5.87 | 0.00 | 92 | 997.9 |
| 20260507141000 | 14 | 188 | 12.9 | 24.1 | 0.00 | 5.87 | 0.00 | 91 | 997.5 |
| 20260507140500 | 14 | 187 | 14.5 | 24.1 | 0.00 | 5.87 | 0.00 | 91 | 997.0 |
| 20260507140000 | 14 | 200 | 12.9 | 20.9 | 0.00 | 5.87 | 0.00 | 90 | 997.5 |
| 20260507135500 | 14 | 214 | 14.5 | 24.1 | 0.00 | 5.87 | 0.00 | 90 | 997.6 |
| 20260507135000 | 14 | 218 | 12.9 | 24.1 | 0.00 | 5.87 | 0.00 | 90 | 997.6 |
| 20260507134500 | 14 | 214 | 9.7 | 17.7 | 0.00 | 5.87 | 0.00 | 90 | 997.8 |
| 20260507134000 | 14 | 219 | 9.7 | 14.5 | 0.00 | 5.87 | 0.00 | 90 | 997.9 |
| 20260507133500 | 14 | 222 | 9.7 | 17.7 | 0.00 | 5.87 | 0.00 | 90 | 997.9 |
| 20260507133000 | 14 | 221 | 11.3 | 17.7 | 0.00 | 5.87 | 0.00 | 89 | 998.0 |
| 20260507132500 | 14 | 214 | 11.3 | 17.7 | 0.00 | 5.87 | 0.00 | 89 | 997.9 |
| 20260507132000 | 14 | 216 | 9.7 | 17.7 | 0.00 | 5.87 | 0.00 | 89 | 997.9 |
| 20260507131500 | 14 | 226 | 11.3 | 20.9 | 0.00 | 5.87 | 0.00 | 89 | 997.9 |
| 20260507131000 | 14 | 227 | 12.9 | 22.5 | 0.00 | 5.87 | 0.00 | 89 | 997.8 |
| 20260507130500 | 14 | 225 | 12.9 | 22.5 | 0.00 | 5.87 | 0.00 | 90 | 997.7 |
| 20260507130000 | 14 | 216 | 12.9 | 20.9 | 0.00 | 5.87 | 0.00 | 90 | 997.1 |
| 20260507125500 | 14 | 219 | 14.5 | 25.7 | 0.00 | 5.87 | 0.00 | 90 | 997.0 |
| 20260507125000 | 14 | 224 | 14.5 | 25.7 | 0.00 | 5.87 | 0.00 | 90 | 996.7 |
| 20260507124500 | 14 | 226 | 16.1 | 30.6 | 0.00 | 5.87 | 0.00 | 90 | 996.5 |
| 20260507124000 | 14 | 228 | 17.7 | 30.6 | 0.00 | 5.87 | 0.00 | 91 | 996.3 |
| 20260507123500 | 14 | 224 | 16.1 | 27.4 | 0.00 | 5.87 | 0.00 | 91 | 995.9 |
| 20260507123000 | 14 | 227 | 17.7 | 29.0 | 0.00 | 5.87 | 0.00 | 92 | 996.0 |
| 20260507122500 | 14 | 229 | 17.7 | 29.0 | 0.00 | 5.87 | 0.00 | 92 | 996.2 |
| 20260507122000 | 14 | 224 | 17.7 | 32.2 | 0.00 | 5.87 | 0.00 | 92 | 996.4 |
| 20260507121500 | 14 | 221 | 16.1 | 32.2 | 0.00 | 5.87 | 0.00 | 93 | 996.5 |
| 20260507121000 | 14 | 212 | 14.5 | 24.1 | 0.00 | 5.87 | 0.00 | 93 | 996.9 |
| 20260507120500 | 14 | 202 | 12.9 | 24.1 | 0.00 | 5.87 | 0.00 | 93 | 996.8 |
| 20260507120000 | 14 | 207 | 12.9 | 24.1 | 0.00 | 5.87 | 0.00 | 93 | 996.7 |
| 20260507115500 | 14 | 211 | 14.5 | 24.1 | 0.00 | 5.87 | 0.00 | 93 | 996.9 |
| 20260507115000 | 15 | 202 | 12.9 | 22.5 | 0.00 | 5.87 | 0.00 | 94 | 997.0 |
| 20260507114500 | 15 | 193 | 11.3 | 22.5 | 0.00 | 5.87 | 0.00 | 94 | 997.0 |
| 20260507114000 | 15 | 195 | 11.3 | 22.5 | 0.00 | 5.87 | 0.00 | 94 | 997.0 |
| 20260507113500 | 15 | 197 | 14.5 | 25.7 | 0.00 | 5.87 | 0.00 | 94 | 996.8 |
| 20260507113000 | 15 | 196 | 14.5 | 29.0 | 0.00 | 5.87 | 0.00 | 94 | 996.3 |
| 20260507112500 | 14 | 193 | 14.5 | 29.0 | 0.00 | 5.87 | 0.00 | 94 | 996.3 |
| 20260507112000 | 15 | 195 | 14.5 | 25.7 | 0.00 | 5.87 | 0.00 | 94 | 996.3 |
| 20260507111500 | 15 | 197 | 14.5 | 27.4 | 0.00 | 5.87 | 0.00 | 94 | 996.4 |
| 20260507111000 | 15 | 198 | 14.5 | 27.4 | 0.00 | 5.87 | 0.00 | 94 | 996.3 |
| 20260507110500 | 15 | 221 | 12.9 | 20.9 | 0.00 | 5.87 | 0.00 | 94 | 996.5 |
| 20260507110000 | 15 | 236 | 12.9 | 24.1 | 0.00 | 5.87 | 0.00 | 94 | 996.7 |
| 20260507105500 | 15 | 235 | 14.5 | 24.1 | 0.00 | 5.87 | 0.00 | 94 | 996.4 |
| 20260507105000 | 15 | 233 | 16.1 | 25.7 | 0.00 | 5.87 | 0.00 | 94 | 996.1 |
| 20260507104500 | 15 | 236 | 17.7 | 30.6 | 0.00 | 5.87 | 0.00 | 94 | 995.9 |
| 20260507104000 | 15 | 238 | 17.7 | 30.6 | 0.00 | 5.87 | 0.00 | 94 | 996.2 |
| 20260507103500 | 15 | 243 | 16.1 | 24.1 | 0.00 | 5.87 | 0.00 | 94 | 996.6 |
| 20260507103000 | 15 | 247 | 16.1 | 24.1 | 0.00 | 5.87 | 0.00 | 94 | 996.7 |
| 20260507102500 | 15 | 247 | 14.5 | 24.1 | 0.00 | 5.87 | 0.00 | 94 | 996.8 |
| 20260507102000 | 15 | 247 | 14.5 | 22.5 | 0.00 | 5.87 | 0.00 | 94 | 996.8 |
| 20260507101500 | 15 | 250 | 16.1 | 25.7 | 0.00 | 5.87 | 0.00 | 94 | 996.7 |
| 20260507101000 | 15 | 252 | 14.5 | 25.7 | 0.00 | 5.87 | 0.00 | 93 | 996.7 |
| 20260507100500 | 15 | 252 | 14.5 | 22.5 | 0.00 | 5.87 | 0.00 | 93 | 996.9 |
| 20260507100000 | 15 | 251 | 16.1 | 25.7 | 0.00 | 5.87 | 0.00 | 93 | 996.9 |
| 20260507095500 | 15 | 246 | 14.5 | 25.7 | 0.00 | 5.87 | 0.00 | 93 | 996.9 |
| 20260507095000 | 15 | 244 | 12.9 | 25.7 | 0.00 | 5.87 | 0.00 | 93 | 996.9 |
| 20260507094500 | 15 | 249 | 14.5 | 25.7 | 0.00 | 5.87 | 0.00 | 93 | 997.1 |
| 20260507094000 | 15 | 250 | 14.5 | 22.5 | 0.00 | 5.87 | 0.00 | 93 | 997.3 |
| 20260507093500 | 15 | 246 | 12.9 | 20.9 | 0.00 | 5.87 | 0.00 | 93 | 997.3 |
| 20260507093000 | 15 | 244 | 14.5 | 22.5 | 0.00 | 5.87 | 0.00 | 93 | 997.3 |
| 20260507092500 | 15 | 241 | 12.9 | 22.5 | 0.00 | 5.87 | 0.00 | 93 | 997.4 |
| 20260507092000 | 16 | 234 | 9.7 | 19.3 | 0.00 | 5.87 | 0.00 | 93 | 997.3 |
| 20260507091500 | 16 | 237 | 6.4 | 11.3 | 0.00 | 5.87 | 0.00 | 93 | 997.3 |
| 20260507091000 | 16 | 245 | 4.8 | 9.7 | 0.00 | 5.87 | 0.00 | 93 | 997.6 |
| 20260507090500 | 16 | 243 | 4.8 | 8.0 | 0.00 | 5.87 | 0.00 | 93 | 998.0 |
| 20260507090000 | 16 | 238 | 4.8 | 8.0 | 0.00 | 5.87 | 0.00 | 93 | 998.2 |
| 20260507085500 | 16 | 240 | 4.8 | 8.0 | 0.00 | 5.87 | 0.00 | 93 | 998.3 |
| 20260507085000 | 16 | 241 | 4.8 | 6.4 | 0.00 | 5.87 | 0.00 | 93 | 998.2 |
| 20260507084500 | 16 | 247 | 3.2 | 6.4 | 0.00 | 5.87 | 0.00 | 93 | 998.1 |
| 20260507084000 | 16 | 253 | 3.2 | 4.8 | 0.00 | 5.87 | 0.00 | 93 | 998.1 |
| 20260507083500 | 16 | 238 | 1.6 | 4.8 | 0.00 | 5.87 | 0.00 | 93 | 997.6 |
| 20260507083000 | 16 | 214 | 0.0 | 4.8 | 0.00 | 5.87 | 0.00 | 92 | 997.4 |
| 20260507082500 | 16 | 81 | 0.0 | 1.6 | 0.00 | 5.87 | 0.00 | 92 | 997.4 |
| 20260507082000 | 16 | 87 | 1.6 | 3.2 | 0.00 | 5.87 | 0.00 | 93 | 997.2 |
| 20260507081500 | 16 | 85 | 3.2 | 4.8 | 0.00 | 5.87 | 0.00 | 93 | 996.7 |
| 20260507081000 | 16 | 80 | 3.2 | 4.8 | 0.00 | 5.87 | 0.00 | 92 | 996.5 |
| 20260507080500 | 16 | 73 | 1.6 | 4.8 | 0.00 | 5.87 | 0.00 | 92 | 996.4 |
| 20260507080000 | 16 | 83 | 0.0 | 3.2 | 0.00 | 5.87 | 0.00 | 92 | 996.5 |
| 20260507075500 | 16 | 62 | 3.2 | 8.0 | 0.00 | 5.87 | 0.00 | 92 | 996.4 |
| 20260507074959 | 16 | 49 | 6.4 | 11.3 | 0.00 | 5.87 | 0.00 | 92 | 996.7 |
| 20260507074500 | 16 | 49 | 8.0 | 11.3 | 0.00 | 5.87 | 0.00 | 92 | 997.1 |
| 20260507073959 | 16 | 57 | 8.0 | 11.3 | 0.00 | 5.87 | 0.00 | 92 | 997.2 |
| 20260507073500 | 16 | 60 | 4.8 | 9.7 | 0.00 | 5.87 | 0.00 | 92 | 997.1 |
| 20260507073000 | 16 | 51 | 3.2 | 4.8 | 0.00 | 5.87 | 0.00 | 92 | 997.0 |
| 20260507072500 | 16 | 36 | 1.6 | 3.2 | 0.00 | 5.87 | 0.00 | 92 | 996.9 |
| 20260507072000 | 16 | 37 | 1.6 | 4.8 | 0.00 | 5.87 | 0.00 | 92 | 996.7 |
| 20260507071500 | 16 | 63 | 4.8 | 9.7 | 0.00 | 5.87 | 0.00 | 92 | 997.0 |
| 20260507071000 | 16 | 74 | 8.0 | 12.9 | 0.00 | 5.87 | 0.00 | 92 | 997.0 |
| 20260507070459 | 16 | 79 | 11.3 | 16.1 | 0.00 | 5.87 | 0.00 | 92 | 997.1 |
| 20260507070000 | 16 | 80 | 14.5 | 19.3 | 0.00 | 5.87 | 0.00 | 92 | 997.2 |
| 20260507065500 | 16 | 79 | 14.5 | 19.3 | 0.00 | 5.87 | 0.00 | 92 | 997.2 |
| 20260507065000 | 16 | 81 | 12.9 | 17.7 | 0.00 | 5.87 | 0.00 | 92 | 997.3 |
| 20260507064500 | 16 | 85 | 12.9 | 22.5 | 0.00 | 5.87 | 0.00 | 91 | 997.4 |
| 20260507064000 | 16 | 81 | 16.1 | 22.5 | 0.00 | 5.87 | 0.00 | 91 | 997.4 |
| 20260507063500 | 16 | 75 | 12.9 | 22.5 | 0.00 | 5.87 | 0.00 | 91 | 997.9 |
| 20260507063000 | 16 | 77 | 12.9 | 19.3 | 0.00 | 5.87 | 0.00 | 91 | 998.0 |
| 20260507062500 | 16 | 82 | 17.7 | 24.1 | 0.00 | 5.87 | 0.00 | 91 | 998.0 |
| 20260507062000 | 16 | 86 | 19.3 | 25.7 | 0.00 | 5.87 | 0.00 | 91 | 997.8 |
| 20260507061459 | 16 | 94 | 12.9 | 25.7 | 0.00 | 5.87 | 0.00 | 92 | 997.4 |
| 20260507060959 | 16 | 96 | 12.9 | 27.4 | 0.00 | 5.87 | 0.00 | 92 | 997.1 |
| 20260507060459 | 16 | 92 | 19.3 | 27.4 | 0.00 | 5.87 | 0.00 | 92 | 997.2 |
| 20260507060000 | 16 | 93 | 17.7 | 27.4 | 0.00 | 5.87 | 0.00 | 93 | 996.9 |
| 20260507055459 | 16 | 90 | 14.5 | 27.4 | 0.00 | 5.87 | 0.00 | 93 | 996.7 |
| 20260507054959 | 16 | 82 | 14.5 | 24.1 | 0.00 | 5.87 | 0.00 | 93 | 997.1 |
| 20260507054500 | 16 | 73 | 16.1 | 24.1 | 0.00 | 5.87 | 0.00 | 94 | 997.4 |
| 20260507053959 | 16 | 69 | 12.9 | 17.7 | 0.00 | 5.87 | 0.00 | 94 | 997.4 |
| 20260507053500 | 16 | 84 | 11.3 | 14.5 | 0.00 | 5.87 | 0.00 | 94 | 997.7 |
| 20260507053000 | 16 | 90 | 14.5 | 19.3 | 0.00 | 5.87 | 0.00 | 94 | 997.5 |
| 20260507052500 | 16 | 89 | 14.5 | 24.1 | 0.00 | 5.87 | 0.00 | 94 | 997.4 |
| 20260507051959 | 16 | 95 | 11.3 | 24.1 | 0.00 | 5.87 | 0.00 | 94 | 997.2 |
| 20260507051500 | 16 | 98 | 11.3 | 20.9 | 0.00 | 5.87 | 0.00 | 94 | 997.0 |
| 20260507051000 | 16 | 92 | 9.7 | 20.9 | 0.00 | 5.87 | 0.00 | 94 | 996.9 |
| 20260507050500 | 16 | 77 | 4.8 | 19.3 | 0.00 | 5.87 | 0.00 | 94 | 997.0 |
| 20260507050000 | 16 | 63 | 1.6 | 4.8 | 0.00 | 5.87 | 0.00 | 95 | 996.8 |
| 20260507045500 | 16 | 45 | 3.2 | 9.7 | 0.00 | 5.87 | 0.00 | 95 | 996.4 |
| 20260507044959 | 16 | 38 | 6.4 | 12.9 | 0.00 | 5.87 | 0.00 | 95 | 996.5 |
| 20260507044500 | 16 | 20 | 4.8 | 12.9 | 0.00 | 5.87 | 0.00 | 95 | 997.1 |
| 20260507043959 | 16 | 39 | 6.4 | 16.1 | 0.00 | 5.87 | 0.00 | 95 | 996.6 |
| 20260507043500 | 16 | 77 | 12.9 | 20.9 | 0.00 | 5.87 | 0.00 | 94 | 996.8 |
| 20260507043000 | 16 | 84 | 20.9 | 29.0 | 0.00 | 5.87 | 0.00 | 94 | 996.0 |
| 20260507042459 | 16 | 84 | 24.1 | 29.0 | 0.00 | 5.87 | 0.00 | 94 | 996.7 |
| 20260507041959 | 16 | 85 | 20.9 | 29.0 | 0.00 | 5.87 | 0.00 | 95 | 996.6 |
| 20260507041459 | 16 | 83 | 20.9 | 29.0 | 0.00 | 5.87 | 0.00 | 95 | 996.5 |
| 20260507041000 | 16 | 83 | 22.5 | 33.8 | 0.00 | 5.87 | 0.00 | 95 | 996.5 |
| 20260507040459 | 16 | 89 | 20.9 | 33.8 | 0.00 | 5.87 | 0.00 | 95 | 996.2 |
| 20260507040000 | 16 | 88 | 24.1 | 35.4 | 0.00 | 5.87 | 0.00 | 95 | 995.7 |
| 20260507035500 | 16 | 86 | 29.0 | 38.6 | 0.00 | 5.87 | 0.00 | 95 | 996.0 |
| 20260507034959 | 16 | 87 | 30.6 | 41.8 | 0.00 | 5.87 | 0.00 | 95 | 995.8 |
| 20260507034459 | 16 | 87 | 33.8 | 45.1 | 0.00 | 5.87 | 0.00 | 95 | 995.8 |
| 20260507034000 | 16 | 87 | 37.0 | 45.1 | 0.03 | 5.87 | 0.00 | 95 | 995.9 |
| 20260507033459 | 15 | 87 | 37.0 | 43.5 | 0.03 | 5.87 | 0.00 | 95 | 996.5 |
| 20260507032959 | 15 | 87 | 33.8 | 41.8 | 0.05 | 5.87 | 0.00 | 95 | 996.5 |
| 20260507032459 | 15 | 91 | 32.2 | 43.5 | 0.05 | 5.87 | 0.00 | 95 | 996.6 |
| 20260507031959 | 15 | 96 | 30.6 | 43.5 | 0.13 | 5.87 | 0.00 | 95 | 996.3 |
| 20260507031459 | 15 | 106 | 27.4 | 49.9 | 0.28 | 5.87 | 0.00 | 95 | 996.4 |
| 20260507031000 | 15 | 118 | 27.4 | 49.9 | 0.33 | 5.87 | 0.00 | 95 | 995.4 |
| 20260507025501 | 15 | 92 | 32.2 | 46.7 | 0.41 | 5.87 | 5.87 | 95 | 998.3 |
| 20260507025000 | 15 | 99 | 30.6 | 46.7 | 0.41 | 5.87 | 5.87 | 95 | 998.5 |
| 20260507024500 | 15 | 104 | 32.2 | 46.7 | 0.41 | 5.87 | 5.87 | 95 | 997.1 |
| 20260507024000 | 15 | 106 | 33.8 | 46.7 | 0.38 | 5.87 | 5.87 | 95 | 999.2 |
| 20260507023501 | 15 | 111 | 29.0 | 46.7 | 0.38 | 5.87 | 5.87 | 95 | 998.5 |
| 20260507023000 | 15 | 112 | 25.7 | 41.8 | 0.36 | 5.84 | 5.84 | 95 | 999.5 |
| 20260507022500 | 15 | 103 | 30.6 | 51.5 | 0.33 | 5.82 | 5.82 | 95 | 999.9 |
| 20260507022000 | 15 | 101 | 32.2 | 51.5 | 0.28 | 5.77 | 5.77 | 95 | 1000.1 |
| 20260507021500 | 15 | 110 | 30.6 | 48.3 | 0.13 | 5.59 | 5.59 | 95 | 1000.6 |
| 20260507021000 | 15 | 115 | 33.8 | 51.5 | 0.08 | 5.56 | 5.56 | 95 | 999.8 |